SCP
0 0 0 0 0 0 0 0 0 0 0 0 0 0 0 0 0 -0 -0 0 -0 -0 -0 -0 0 0 0 0 0 0 0 0 0 0 0 0 0 0 0 0 0 0 0 0 0 0 0
0 0 0 0 0 0 0 0 0 0 0 0 0 0 0 0 0 0 -0 0 -0 -0 -0 0 0 0 0 0 0 0 0 0 0 0 0 0 0 0 0 0 0 0 0 0 0 0 0
0 0 0 0 0 0 0 0 0 0 0 0 0 0 0 0 0 0 0 0 -0 -0 -0 0 0 0 0 0 0 0 0 0 0 0 0 0 0 0 0 0 0 0 0 0 0 0 0
0 0 0 0 0 0 0 0 0 0 -0 -0 -0 0 0 0 0 0 0 -0 -0 -0 0 0 0 0 0 0 0 0 0 0 0 0 0 0 0 0 0 0 0 0 0 0 0 0 0
0 0 0 0 0 0 0 0 0 0 0 -0 -0 0 0 0 0 -0 -0 -0 -0 -0 -0 -0 0 0 0 0 0 0 0 0 0 0 0 0 0 0 0 0 0 0 0 0 0 0 0
0 0 0 0 0 0 0 0 0 0 0 -0 0 -0 -0 -0 0 0 -0 -0 -0 -0 -0 0 0 0 0 0 0 0 0 0 0 0 0 0 0 0 0 0 0 0 0 0 0 0 0
0 0 0 0 0 0 0 0 0 0 -0 0 -0 0 -0 -0 0 0 -0 -0 -0 -0 -0 -0 0 0 0 0 0 0 0 0 0 0 0 0 0 0 0 0 0 0 0 0 0 0 0
0 0 0 0 0 0 0 0 0 0 -0 -0 -0 0 0 -0 -0 -0 -0 -0 0 0 -0 0 0 0 0 0 0 0 0 0 0 0 0 0 0 0 0 0 0 0 0 0 0 0 0
0 0 0 0 0 0 0 0 0 0 0 -0 -0 0 0 0 0 0 0 0 0 0 0 0 0 0 0 0 0 0 0 0 0 0 0 0 0 0 0 0 0 0 0 0 0 0 0
0 0 0 0 0 0 0 0 0 0 0 0 0 0 0 0 0 0 0 0 0 0 0 0 0 0 0 0 0 0 0 0 0 0 0 0 0 0 0 0 0 0 0 0 0 0 0
0 0 0 0 0 0 0 0 0 0 0 0 0 0 0 0 0 0 0 0 0 0 0 0 0 0 0 0 0 0 0 0 0 0 0 0 0 0 0 0 0 0 0 0 0 0 0
0 0 0 0 0 0 0 0 0 0 0 0 0 0 0 0 0 0 0 0 0 0 0 0 0 0 0 0 0 0 0 0 0 0 0 0 0 0 0 0 0 0 0 0 0 0 0
0 0 0 0 0 0 0 0 0 0 0 0 0 0 0 0 0 0 0 0 0 0 0 0 0 0 0 0 0 0 0 0 0 0 0 0 0 0 0 0 0 0 0 0 0 0 0
0 0 0 0 0 0 0 0 0 0 0 0 0 0 0 0 0 0 0 0 0 0 0 0 0 0 0 0 0 0 0 0 0 0 0 0 0 0 0 0 0 0 0 0 0 0 0
0 0 0 0 0 0 0 0 0 0 0 0 0 0 0 0 0 0 0 0 0 0 0 0 0 0 0 0 0 0 0 0 0 0 0 0 0 0 0 0 0 0 0 0 0 0 0
0 0 0 0 0 0 0 0 0 0 0 0 0 0 0 0 0 0 0 0 0 0 0 0 0 0 0 0 0 0 0 0 -0 0 0 0 0 0 0 0 0 0 -0 0 -0 0 0
0 0 0 0 0 0 0 0 0 0 0 0 0 0 0 0 0 0 0 0 0 0 0 0 0 0 0 0 0 0 0 0 -0 0 0 0 -0 -0 -0 -0 0 -0 -0 0 -0 -0 -0
0 0 0 0 0 0 0 0 0 0 0 0 0 0 0 0 0 0 0 0 0 0 0 0 0 0 0 0 0 0 0 0 0 0 0 0 -0 0 -0 -0 -0 -0 -0 -0 -0 -0 -0
0 0 0 0 0 0 0 0 0 -0 0 0 0 0 0 0 0 0 0 0 0 0 0 0 0 0 0 0 0 0 0 0 0 0 0 0 0 0 0 -0 -0 -0 -0 -0 -0 0 -0
0 0 0 0 0 0 0 0 0 0 0 0 0 0 0 0 0 0 0 0 0 0 0 0 0 0 0 0 0 0 0 0 0 0 0 0 0 -0 -0 -0 -0 -0 -0 -0 -0 -0 -0
0 0 0 0 0 0 0 0 0 0 0 0 0 0 0 0 0 0 0 0 0 0 0 0 0 0 0 0 0 0 0 0 0 0 0 -0 -0 -0 -0 -0 -0 -0 -0 -0 -0 -0 -0
0 0 0 0 0 0 0 0 0 0 0 0 0 0 0 0 0 0 0 0 0 0 0 0 0 0 0 0 0 0 0 0 0 -0 -0 -0 -0 -0 -0 0 -0 0 -0 -0 -0 -0 -0
0 0 0 0 0 0 0 0 0 0 0 0 0 0 0 0 0 0 0 0 0 0 0 0 0 0 0 0 0 0 0 0 0 -0 0 0 0 0 0 -0 -0 0 0 0 0 0 0
0 0 0 0 0 0 0 0 0 0 0 0 0 0 0 0 0 0 0 0 0 0 0 0 0 0 0 -0 -0 0 0 0 0 0 0 0 0 0 0 -0 0 -0 0 0 -0 -0 -0
0 0 0 0 0 0 0 0 0 0 0 0 0 0 0 0 0 0 0 0 0 0 0 0 0 0 0 0 -0 -0 -0 0 0 0 0 0 0 0 0 0 -0 0 0 0 0 0 0
0 0 0 0 0 0 0 0 0 0 0 0 0 0 0 0 0 0 0 0 0 0 0 0 0 0 0 0 0 0 0 0 -0 -0 0 0 0 0 0 0 0 0 0 0 0 0 0
0 0 0 0 0 0 0 0 0 0 0 0 0 0 0 0 0 0 0 0 0 0 0 0 0 0 0 0 0 0 0 0 0 0 0 0 0 0 0 0 -0 0 0 0 -0 -0 0
0 0 0 0 0 0 0 0 0 0 0 0 0 0 0 0 0 0 0 0 0 0 0 0 0 0 0 0 0 0 0 0 0 0 0 0 0 0 0 0 -0 0 0 0 0 0 0
0 0 0 0 0 0 0 0 0 0 0 0 0 0 0 0 0 0 0 0 0 0 0 0 0 0 0 0 0 0 0 0 0 0 0 0 0 0 0 0 0 0 0 0 0 0 0
Wind_Speed_500mb
52 55 58 61 64 64 66 69 66 66 62 63 70 66 81 65 63 58 53 45 41 40 49 41 45 62 55 34 15 25 26 36 25 29 28 31 25 11 13 12 10 6 8 10 11 5 4
50 52 56 61 63 67 63 65 62 64 63 68 57 65 68 67 64 58 48 48 55 57 48 45 33 36 42 26 32 32 31 29 29 27 17 18 7 13 17 13 6 8 15 11 11 6 7
46 50 52 55 58 64 63 60 57 61 64 63 59 64 63 67 69 66 63 57 55 60 62 54 40 40 54 23 29 44 27 23 20 23 22 21 18 8 14 9 8 8 5 1 12 9 4
49 47 50 53 55 60 63 57 53 52 56 55 50 55 59 70 65 65 69 61 52 41 36 42 38 40 26 39 40 48 22 26 24 23 23 24 24 24 11 20 6 3 7 4 3 12 5
50 54 50 51 54 57 62 60 51 47 46 47 48 50 55 60 65 62 53 55 63 47 39 35 38 44 16 32 33 42 30 29 24 24 26 24 17 11 9 9 8 5 2 5 4 15 7
51 49 50 48 50 53 57 59 51 43 43 42 45 45 50 45 43 37 36 45 44 41 36 38 30 30 21 17 28 32 18 20 28 27 18 10 9 6 7 9 7 1 3 6 4 7 7
57 50 47 47 47 48 51 52 50 40 32 34 36 34 24 24 25 26 17 28 25 37 74 45 47 56 31 32 35 23 16 12 9 0 7 9 15 7 8 6 4 2 3 5 4 3 8
54 54 49 45 43 43 44 46 45 39 32 34 34 33 33 24 36 46 57 52 41 39 33 60 53 49 37 25 21 27 19 7 7 8 7 12 9 3 7 9 8 8 5 8 5 6 9
56 53 51 46 40 38 38 40 40 33 26 40 47 47 46 39 32 34 41 43 29 18 16 26 35 34 23 28 21 30 24 16 13 12 12 12 5 2 6 5 9 6 6 6 5 14 8
56 52 50 48 43 38 37 37 35 28 13 15 19 22 28 14 14 19 22 15 7 8 10 20 18 18 22 12 11 26 19 11 13 8 9 11 6 6 3 6 6 5 10 10 10 10 4
54 52 47 45 42 40 36 36 34 30 24 14 28 31 31 23 19 12 12 11 7 2 13 19 12 13 16 10 1 17 19 19 11 8 9 3 4 5 8 6 7 4 8 6 5 5 8
53 55 49 44 42 37 36 31 31 29 26 28 32 28 19 11 15 11 9 6 5 13 8 12 8 7 4 15 8 6 10 13 5 6 11 7 4 4 3 6 2 7 6 5 3 3 5
52 53 54 46 42 39 34 33 28 23 26 28 36 34 24 12 6 7 6 3 11 13 4 9 5 4 8 9 8 10 6 8 6 9 6 6 0 3 2 4 4 2 7 6 4 1 11
52 49 51 53 43 40 36 31 33 31 22 20 27 34 27 20 12 7 5 11 21 8 7 6 5 5 6 7 6 7 5 6 6 4 3 7 10 8 5 4 3 3 3 2 6 3 9
52 47 47 49 52 42 37 37 32 33 23 15 18 28 29 23 14 9 9 13 11 9 8 5 5 3 4 3 3 3 5 4 6 9 6 5 3 5 5 7 4 2 3 6 3 4 7
51 49 46 47 47 48 39 38 37 32 25 9 7 8 31 24 17 12 12 12 7 3 1 2 3 4 4 4 2 4 5 2 5 5 5 5 3 3 2 6 8 3 2 3 4 6 9
48 51 49 47 47 47 44 38 37 36 29 13 7 6 24 14 18 18 7 4 8 4 4 4 8 1 5 6 4 4 3 6 5 4 5 3 3 1 6 11 14 5 4 5 1 5 5
43 45 49 47 48 45 44 42 37 37 30 15 6 6 18 17 11 10 4 5 2 6 5 4 3 5 6 2 5 6 1 3 12 11 6 6 6 8 16 7 14 9 12 10 7 5 6
38 43 44 44 44 44 40 41 38 35 34 20 8 6 11 12 6 4 1 3 1 5 8 6 4 5 5 6 4 1 6 11 16 10 4 5 4 4 8 9 4 8 12 11 6 3 14
38 40 47 51 47 42 40 36 35 32 27 17 6 5 4 7 10 13 6 5 3 5 4 5 4 6 3 7 8 4 6 9 21 13 11 4 5 12 10 5 5 8 11 15 14 6 7
44 46 46 49 55 48 38 36 33 28 22 14 5 2 2 3 5 6 7 9 5 4 6 9 5 10 7 3 8 7 6 5 6 11 9 8 9 9 14 23 22 25 25 25 24 23 15
42 47 46 46 49 51 41 36 32 24 18 9 4 1 2 3 5 2 5 13 14 8 12 8 7 6 8 8 8 8 3 5 10 8 9 6 8 6 11 21 14 19 29 31 35 37 37
39 44 45 42 42 41 43 38 32 22 14 6 6 2 1 3 4 7 8 8 12 18 13 14 10 2 7 12 10 15 19 19 15 14 13 11 5 4 11 11 17 16 17 29 17 15 36
40 40 42 39 36 36 34 36 33 23 14 11 9 7 3 7 7 9 6 12 12 11 8 9 17 10 7 5 22 28 36 37 28 25 23 6 5 4 9 11 5 14 7 14 23 26 35
42 41 41 36 34 34 31 30 30 25 18 12 9 6 7 6 13 13 18 10 9 12 11 18 19 14 12 9 5 10 6 5 7 11 14 16 8 5 5 5 19 15 7 10 12 14 19
46 43 43 38 32 32 28 25 26 27 20 17 13 12 7 6 9 11 3 12 7 7 4 12 14 13 10 7 5 6 7 9 5 1 6 8 9 7 4 4 10 10 4 8 6 11 15
44 45 44 43 38 33 29 29 23 24 24 21 20 17 13 10 15 14 8 7 8 7 4 5 10 9 19 5 5 8 9 5 6 10 9 8 12 24 20 11 18 18 12 12 1 12 20
45 48 46 44 43 38 29 27 28 25 28 26 25 24 23 14 37 42 30 21 13 10 6 6 4 6 6 8 8 9 8 11 5 9 13 15 14 10 13 13 20 21 13 15 12 4 21
48 49 46 44 42 40 37 30 29 29 30 31 34 29 28 32 26 32 32 33 46 38 20 18 7 6 18 4 4 3 6 4 9 7 6 7 16 11 23 17 16 52 25 33 16 16 23
Wind_Direction_500mb
20 20 18 19 20 19 18 17 18 20 25 23 26 46 60 64 71 74 76 90 92 104 119 140 148 160 152 121 83 135 136 138 146 133 131 152 161 148 145 137 108 85 128 122 142 162 245
16 20 19 19 18 19 20 19 19 24 25 28 49 57 61 59 64 63 72 91 92 110 113 119 129 127 132 78 127 133 110 125 127 130 143 162 154 98 111 121 87 95 132 142 173 193 222
18 19 21 18 18 20 19 21 21 28 35 42 61 57 57 64 66 68 79 88 104 109 99 105 117 147 95 67 112 116 109 136 126 144 130 134 124 121 106 90 93 95 82 135 207 210 183
20 17 20 20 18 21 22 25 25 38 43 46 52 62 67 72 75 76 80 80 85 93 114 118 111 109 73 92 90 100 111 130 138 144 144 128 127 103 84 121 82 81 46 105 204 157 198
20 21 21 27 22 21 24 28 30 40 47 56 65 63 77 76 72 71 75 85 85 87 80 106 121 80 73 88 66 85 84 106 119 118 126 135 124 83 105 94 40 17 181 180 237 197 151
19 19 18 27 28 21 27 27 32 42 51 62 70 78 86 73 67 57 58 79 85 93 88 89 80 77 60 66 70 83 83 94 105 103 93 78 68 70 37 58 170 85 235 196 224 218 227
22 18 19 19 29 27 25 28 29 36 53 57 70 83 80 63 36 25 85 75 61 49 59 63 78 96 75 76 57 64 94 76 67 80 94 51 69 92 99 60 79 349 47 23 63 62 276
25 20 18 19 25 30 28 29 29 31 49 53 58 67 60 53 48 65 90 83 80 103 61 65 71 69 61 48 48 57 61 68 74 94 95 41 86 108 89 53 56 44 47 353 39 33 326
23 24 20 18 20 30 31 30 32 33 68 86 75 70 75 74 53 54 58 78 92 83 76 48 45 42 37 46 34 14 43 51 64 61 71 100 137 32 26 40 38 50 59 33 331 338 348
22 24 23 21 19 28 36 37 34 35 39 89 63 41 27 7 34 24 42 49 65 96 75 5 7 14 13 6 47 22 38 30 37 78 83 91 38 23 20 59 60 76 19 24 358 29 285
20 21 25 23 21 16 29 35 39 36 29 329 312 314 321 334 3 17 22 21 49 61 63 312 340 343 8 68 76 18 33 69 54 47 72 238 113 25 21 51 30 111 343 274 262 284 33
21 19 21 24 20 19 15 26 29 32 25 13 10 358 328 311 340 1 3 21 66 42 31 326 310 301 11 53 35 4 40 60 59 53 55 94 64 51 46 356 54 318 336 298 168 309 344
17 18 17 23 21 16 14 8 15 13 10 19 27 20 26 11 356 22 23 19 48 63 284 315 303 10 63 33 18 18 32 31 68 65 15 36 122 119 83 15 246 190 50 356 329 308 228
11 17 15 14 24 17 15 12 359 1 6 9 27 36 41 36 40 38 19 51 66 245 189 267 263 290 75 20 359 349 40 33 353 54 95 121 338 182 176 213 350 3 329 196 253 305 271
6 11 15 15 11 19 15 15 12 1 6 34 37 34 30 30 21 12 84 50 158 205 217 201 320 332 36 68 99 10 63 92 56 42 98 43 311 89 174 22 54 355 183 118 104 226 275
8 4 10 10 13 10 13 10 11 8 357 23 43 27 16 19 28 17 70 118 114 122 35 18 193 152 122 206 186 183 156 297 120 68 43 67 73 159 108 85 60 51 79 193 137 303 280
4 4 1 4 6 8 6 7 5 7 359 358 30 38 12 16 10 45 86 99 124 150 5 332 342 160 97 159 82 33 144 209 132 124 42 123 93 252 100 205 186 151 197 220 336 179 222
356 358 356 357 357 1 2 1 359 5 8 354 2 52 4 3 48 53 62 12 53 143 155 283 303 331 19 358 212 219 204 112 153 170 178 166 191 231 228 246 174 177 191 175 141 200 233
346 346 348 349 350 349 356 355 355 354 9 7 360 349 19 25 91 36 249 65 358 151 206 192 216 90 27 321 341 188 189 157 162 182 201 183 252 349 360 350 291 216 206 194 166 120 220
334 337 340 340 344 344 343 348 351 346 355 1 356 359 34 77 102 132 150 208 188 224 221 204 227 119 197 231 217 248 213 212 193 200 167 130 240 202 204 228 128 226 219 210 178 181 209
331 331 333 335 336 343 338 338 342 342 337 352 21 299 296 281 335 122 136 159 168 222 235 219 235 226 196 201 182 220 200 138 215 202 188 167 231 204 246 258 259 253 243 234 218 215 202
322 323 327 328 332 336 342 337 340 342 328 334 329 108 213 265 195 170 189 200 187 185 161 237 213 297 198 200 161 217 101 221 191 196 188 208 273 287 271 259 259 258 248 239 237 238 246
314 320 319 320 325 334 341 341 337 335 332 325 334 311 258 242 236 125 222 224 202 152 205 175 186 162 252 242 235 252 242 232 200 167 208 168 200 355 268 309 324 293 229 222 225 219 223
302 312 314 314 319 327 333 339 337 329 318 303 314 292 259 274 177 213 219 197 191 210 186 173 186 166 205 265 298 277 258 253 251 251 212 158 160 172 277 340 297 244 247 208 211 230 221
291 301 304 305 312 319 323 331 332 327 305 292 295 275 290 270 241 280 245 211 230 231 224 229 228 223 223 323 1 339 346 313 250 215 208 178 133 281 242 255 290 293 213 184 186 277 215
283 291 296 297 303 311 317 317 324 323 304 282 269 266 270 310 266 285 277 221 205 214 273 223 188 205 215 159 146 209 241 238 228 204 63 135 136 165 336 223 253 245 215 162 103 287 211
279 283 287 292 293 298 303 303 304 308 300 276 264 259 254 257 271 258 234 217 200 221 222 167 190 175 179 159 172 190 232 191 223 191 170 174 209 223 233 261 281 243 185 140 102 247 185
275 283 282 283 286 290 293 292 287 295 296 281 267 254 248 249 267 266 255 243 235 226 176 153 83 209 139 171 175 225 195 221 200 187 178 171 163 194 198 225 268 177 118 173 221 203 199
277 281 280 280 279 284 290 285 283 279 289 285 271 260 255 248 260 267 268 259 248 245 247 216 248 182 202 141 226 188 228 201 179 249 167 221 194 184 191 215 242 188 224 225 264 258 230
Wind_Speed_850mb
52 55 58 61 64 64 66 69 66 66 62 63 70 66 81 65 63 58 53 45 41 40 49 41 45 62 55 34 15 25 26 36 25 29 28 31 25 11 13 12 10 6 8 10 11 5 4
50 52 56 61 63 67 63 65 62 64 63 68 57 65 68 67 64 58 48 48 55 57 48 45 33 36 42 26 32 32 31 29 29 27 17 18 7 13 17 13 6 8 15 11 11 6 7
46 50 52 55 58 64 63 60 57 61 64 63 59 64 63 67 69 66 63 57 55 60 62 54 40 40 54 23 29 44 27 23 20 23 22 21 18 8 14 9 8 8 5 1 12 9 4
49 47 50 53 55 60 63 57 53 52 56 55 50 55 59 70 65 65 69 61 52 41 36 42 38 40 26 39 40 48 22 26 24 23 23 24 24 24 11 20 6 3 7 4 3 12 5
50 54 50 51 54 57 62 60 51 47 46 47 48 50 55 60 65 62 53 55 63 47 39 35 38 44 16 32 33 42 30 29 24 24 26 24 17 11 9 9 8 5 2 5 4 15 7
51 49 50 48 50 53 57 59 51 43 43 42 45 45 50 45 43 37 36 45 44 41 36 38 30 30 21 17 28 32 18 20 28 27 18 10 9 6 7 9 7 1 3 6 4 7 7
57 50 47 47 47 48 51 52 50 40 32 34 36 34 24 24 25 26 17 28 25 37 74 45 47 56 31 32 35 23 16 12 9 0 7 9 15 7 8 6 4 2 3 5 4 3 8
54 54 49 45 43 43 44 46 45 39 32 34 34 33 33 24 36 46 57 52 41 39 33 60 53 49 37 25 21 27 19 7 7 8 7 12 9 3 7 9 8 8 5 8 5 6 9
56 53 51 46 40 38 38 40 40 33 26 40 47 47 46 39 32 34 41 43 29 18 16 26 35 34 23 28 21 30 24 16 13 12 12 12 5 2 6 5 9 6 6 6 5 14 8
56 52 50 48 43 38 37 37 35 28 13 15 19 22 28 14 14 19 22 15 7 8 10 20 18 18 22 12 11 26 19 11 13 8 9 11 6 6 3 6 6 5 10 10 10 10 4
54 52 47 45 42 40 36 36 34 30 24 14 28 31 31 23 19 12 12 11 7 2 13 19 12 13 16 10 1 17 19 19 11 8 9 3 4 5 8 6 7 4 8 6 5 5 8
53 55 49 44 42 37 36 31 31 29 26 28 32 28 19 11 15 11 9 6 5 13 8 12 8 7 4 15 8 6 10 13 5 6 11 7 4 4 3 6 2 7 6 5 3 3 5
52 53 54 46 42 39 34 33 28 23 26 28 36 34 24 12 6 7 6 3 11 13 4 9 5 4 8 9 8 10 6 8 6 9 6 6 0 3 2 4 4 2 7 6 4 1 11
52 49 51 53 43 40 36 31 33 31 22 20 27 34 27 20 12 7 5 11 21 8 7 6 5 5 6 7 6 7 5 6 6 4 3 7 10 8 5 4 3 3 3 2 6 3 9
52 47 47 49 52 42 37 37 32 33 23 15 18 28 29 23 14 9 9 13 11 9 8 5 5 3 4 3 3 3 5 4 6 9 6 5 3 5 5 7 4 2 3 6 3 4 7
51 49 46 47 47 48 39 38 37 32 25 9 7 8 31 24 17 12 12 12 7 3 1 2 3 4 4 4 2 4 5 2 5 5 5 5 3 3 2 6 8 3 2 3 4 6 9
48 51 49 47 47 47 44 38 37 36 29 13 7 6 24 14 18 18 7 4 8 4 4 4 8 1 5 6 4 4 3 6 5 4 5 3 3 1 6 11 14 5 4 5 1 5 5
43 45 49 47 48 45 44 42 37 37 30 15 6 6 18 17 11 10 4 5 2 6 5 4 3 5 6 2 5 6 1 3 12 11 6 6 6 8 16 7 14 9 12 10 7 5 6
38 43 44 44 44 44 40 41 38 35 34 20 8 6 11 12 6 4 1 3 1 5 8 6 4 5 5 6 4 1 6 11 16 10 4 5 4 4 8 9 4 8 12 11 6 3 14
38 40 47 51 47 42 40 36 35 32 27 17 6 5 4 7 10 13 6 5 3 5 4 5 4 6 3 7 8 4 6 9 21 13 11 4 5 12 10 5 5 8 11 15 14 6 7
44 46 46 49 55 48 38 36 33 28 22 14 5 2 2 3 5 6 7 9 5 4 6 9 5 10 7 3 8 7 6 5 6 11 9 8 9 9 14 23 22 25 25 25 24 23 15
42 47 46 46 49 51 41 36 32 24 18 9 4 1 2 3 5 2 5 13 14 8 12 8 7 6 8 8 8 8 3 5 10 8 9 6 8 6 11 21 14 19 29 31 35 37 37
39 44 45 42 42 41 43 38 32 22 14 6 6 2 1 3 4 7 8 8 12 18 13 14 10 2 7 12 10 15 19 19 15 14 13 11 5 4 11 11 17 16 17 29 17 15 36
40 40 42 39 36 36 34 36 33 23 14 11 9 7 3 7 7 9 6 12 12 11 8 9 17 10 7 5 22 28 36 37 28 25 23 6 5 4 9 11 5 14 7 14 23 26 35
42 41 41 36 34 34 31 30 30 25 18 12 9 6 7 6 13 13 18 10 9 12 11 18 19 14 12 9 5 10 6 5 7 11 14 16 8 5 5 5 19 15 7 10 12 14 19
46 43 43 38 32 32 28 25 26 27 20 17 13 12 7 6 9 11 3 12 7 7 4 12 14 13 10 7 5 6 7 9 5 1 6 8 9 7 4 4 10 10 4 8 6 11 15
44 45 44 43 38 33 29 29 23 24 24 21 20 17 13 10 15 14 8 7 8 7 4 5 10 9 19 5 5 8 9 5 6 10 9 8 12 24 20 11 18 18 12 12 1 12 20
45 48 46 44 43 38 29 27 28 25 28 26 25 24 23 14 37 42 30 21 13 10 6 6 4 6 6 8 8 9 8 11 5 9 13 15 14 10 13 13 20 21 13 15 12 4 21
48 49 46 44 42 40 37 30 29 29 30 31 34 29 28 32 26 32 32 33 46 38 20 18 7 6 18 4 4 3 6 4 9 7 6 7 16 11 23 17 16 52 25 33 16 16 23
Wind_Direction_850mb
20 20 18 19 20 19 18 17 18 20 25 23 26 46 60 64 71 74 76 90 92 104 119 140 148 160 152 121 83 135 136 138 146 133 131 152 161 148 145 137 108 85 128 122 142 162 245
16 20 19 19 18 19 20 19 19 24 25 28 49 57 61 59 64 63 72 91 92 110 113 119 129 127 132 78 127 133 110 125 127 130 143 162 154 98 111 121 87 95 132 142 173 193 222
18 19 21 18 18 20 19 21 21 28 35 42 61 57 57 64 66 68 79 88 104 109 99 105 117 147 95 67 112 116 109 136 126 144 130 134 124 121 106 90 93 95 82 135 207 210 183
20 17 20 20 18 21 22 25 25 38 43 46 52 62 67 72 75 76 80 80 85 93 114 118 111 109 73 92 90 100 111 130 138 144 144 128 127 103 84 121 82 81 46 105 204 157 198
20 21 21 27 22 21 24 28 30 40 47 56 65 63 77 76 72 71 75 85 85 87 80 106 121 80 73 88 66 85 84 106 119 118 126 135 124 83 105 94 40 17 181 180 237 197 151
19 19 18 27 28 21 27 27 32 42 51 62 70 78 86 73 67 57 58 79 85 93 88 89 80 77 60 66 70 83 83 94 105 103 93 78 68 70 37 58 170 85 235 196 224 218 227
22 18 19 19 29 27 25 28 29 36 53 57 70 83 80 63 36 25 85 75 61 49 59 63 78 96 75 76 57 64 94 76 67 80 94 51 69 92 99 60 79 349 47 23 63 62 276
25 20 18 19 25 30 28 29 29 31 49 53 58 67 60 53 48 65 90 83 80 103 61 65 71 69 61 48 48 57 61 68 74 94 95 41 86 108 89 53 56 44 47 353 39 33 326
23 24 20 18 20 30 31 30 32 33 68 86 75 70 75 74 53 54 58 78 92 83 76 48 45 42 37 46 34 14 43 51 64 61 71 100 137 32 26 40 38 50 59 33 331 338 348
22 24 23 21 19 28 36 37 34 35 39 89 63 41 27 7 34 24 42 49 65 96 75 5 7 14 13 6 47 22 38 30 37 78 83 91 38 23 20 59 60 76 19 24 358 29 285
20 21 25 23 21 16 29 35 39 36 29 329 312 314 321 334 3 17 22 21 49 61 63 312 340 343 8 68 76 18 33 69 54 47 72 238 113 25 21 51 30 111 343 274 262 284 33
21 19 21 24 20 19 15 26 29 32 25 13 10 358 328 311 340 1 3 21 66 42 31 326 310 301 11 53 35 4 40 60 59 53 55 94 64 51 46 356 54 318 336 298 168 309 344
17 18 17 23 21 16 14 8 15 13 10 19 27 20 26 11 356 22 23 19 48 63 284 315 303 10 63 33 18 18 32 31 68 65 15 36 122 119 83 15 246 190 50 356 329 308 228
11 17 15 14 24 17 15 12 359 1 6 9 27 36 41 36 40 38 19 51 66 245 189 267 263 290 75 20 359 349 40 33 353 54 95 121 338 182 176 213 350 3 329 196 253 305 271
6 11 15 15 11 19 15 15 12 1 6 34 37 34 30 30 21 12 84 50 158 205 217 201 320 332 36 68 99 10 63 92 56 42 98 43 311 89 174 22 54 355 183 118 104 226 275
8 4 10 10 13 10 13 10 11 8 357 23 43 27 16 19 28 17 70 118 114 122 35 18 193 152 122 206 186 183 156 297 120 68 43 67 73 159 108 85 60 51 79 193 137 303 280
4 4 1 4 6 8 6 7 5 7 359 358 30 38 12 16 10 45 86 99 124 150 5 332 342 160 97 159 82 33 144 209 132 124 42 123 93 252 100 205 186 151 197 220 336 179 222
356 358 356 357 357 1 2 1 359 5 8 354 2 52 4 3 48 53 62 12 53 143 155 283 303 331 19 358 212 219 204 112 153 170 178 166 191 231 228 246 174 177 191 175 141 200 233
346 346 348 349 350 349 356 355 355 354 9 7 360 349 19 25 91 36 249 65 358 151 206 192 216 90 27 321 341 188 189 157 162 182 201 183 252 349 360 350 291 216 206 194 166 120 220
334 337 340 340 344 344 343 348 351 346 355 1 356 359 34 77 102 132 150 208 188 224 221 204 227 119 197 231 217 248 213 212 193 200 167 130 240 202 204 228 128 226 219 210 178 181 209
331 331 333 335 336 343 338 338 342 342 337 352 21 299 296 281 335 122 136 159 168 222 235 219 235 226 196 201 182 220 200 138 215 202 188 167 231 204 246 258 259 253 243 234 218 215 202
322 323 327 328 332 336 342 337 340 342 328 334 329 108 213 265 195 170 189 200 187 185 161 237 213 297 198 200 161 217 101 221 191 196 188 208 273 287 271 259 259 258 248 239 237 238 246
314 320 319 320 325 334 341 341 337 335 332 325 334 311 258 242 236 125 222 224 202 152 205 175 186 162 252 242 235 252 242 232 200 167 208 168 200 355 268 309 324 293 229 222 225 219 223
302 312 314 314 319 327 333 339 337 329 318 303 314 292 259 274 177 213 219 197 191 210 186 173 186 166 205 265 298 277 258 253 251 251 212 158 160 172 277 340 297 244 247 208 211 230 221
291 301 304 305 312 319 323 331 332 327 305 292 295 275 290 270 241 280 245 211 230 231 224 229 228 223 223 323 1 339 346 313 250 215 208 178 133 281 242 255 290 293 213 184 186 277 215
283 291 296 297 303 311 317 317 324 323 304 282 269 266 270 310 266 285 277 221 205 214 273 223 188 205 215 159 146 209 241 238 228 204 63 135 136 165 336 223 253 245 215 162 103 287 211
279 283 287 292 293 298 303 303 304 308 300 276 264 259 254 257 271 258 234 217 200 221 222 167 190 175 179 159 172 190 232 191 223 191 170 174 209 223 233 261 281 243 185 140 102 247 185
275 283 282 283 286 290 293 292 287 295 296 281 267 254 248 249 267 266 255 243 235 226 176 153 83 209 139 171 175 225 195 221 200 187 178 171 163 194 198 225 268 177 118 173 221 203 199
277 281 280 280 279 284 290 285 283 279 289 285 271 260 255 248 260 267 268 259 248 245 247 216 248 182 202 141 226 188 228 201 179 249 167 221 194 184 191 215 242 188 224 225 264 258 230